www.pogodaiklimat.ru

Погода и климат >> Архив погоды >> Россия >> Бурятия >> Петропавловка


ПОГОДА в Петропавловке

  • Прогноз погоды в Петропавловке
  • Монитор погоды в Петропавловке

АРХИВ ПОГОДЫ в Петропавловке

Время (UTC), дата Ветер
(напр.,м/с)
 
Видим.   Явления Облачность Т
(С)
Тd
(С)
f
(%)
Тe
(С)
Тes
(С)
Комфортность P
(гПа)
Po
(гПа)
Тmin
(С)
Tmax
(С)
R
(мм)
R24
(мм)
S
(см)
06 16.08 ЮВ 2 50 км 8/4 1000 м
[Cb cap Ac trans Ci fib]
+20.6 +13.1 62 +24 +27 комфорт 1009.5 933.3
09 16.08 В 3 50 км 9/5 1000 м
[Cb cap Ac trans Ci fib]
+22.3 +12.8 55 +25 +26 комфорт 1007.6 931.9
12 16.08 В 2 50 км 8/0
[Ac cuf Ci fib]
+19.2 +12.5 65 +21 +21 комфорт 1008.1 931.6 +22.6
15 16.08 С 3 н/о 8/0
[Ac trans Ci sp]
+14.5 +11.8 84 +14 +14 1011.2 933.3
18 16.08 СЗ 2 н/о 3/0
[Ac trans]
+11.7 +10.8 94 +10 +10 1010.6 932.0
21 16.08 ЮЗ 2 н/о 9/0
[Ac As Ci fib]
+10.6 +10.3 98 +9 +9 1011.0 932.0
00 17.08 ЮЗ 1 50 км 10/0
[Ac As]
+12.0 +11.5 97 +12 +13 1008.7 930.3 +10.3
03 17.08 ЮВ 1 50 км {дождь} 10/0
[Ac As]
+14.2 +12.4 89 +15 +15 1008.5 930.7
06 17.08 СВ 2 50 км {дождь} 8/4 1000 м
[Cu Sc Ac trans Ci fib]
+18.5 +13.4 72 +20 +24 1005.7 929.3
09 17.08 В 2 50 км гроза без осадков 10/6 1000 м
[Cb cap Ac trans Ci fib]
+18.1 +14.6 80 +19 +19 1005.8 929.3
12 17.08 СВ 4 50 км в посл. час ливневой дождь {гроза} 9/6 1000 м
[Cb cap Ac As Ci fib]
+16.2 +13.2 82 +15 +15 1005.5 928.5 +20.3 0.0
15 17.08 З 1 н/о 6/0
[Ac lent Ci sp]
+12.3 +10.9 91 +12 +12 1010.5 932.0
18 17.08 З 3 н/о 9/5 1000 м
[Cb cap Ac As Ci sp]
+13.5 +10.8 84 +12 +12 1011.5 933.3
21 17.08 ЮЗ 3 н/о 9/4 1000 м
[Cb cap Ac trans]
+13.0 +10.2 83 +12 +12 1013.2 934.7
00 18.08 ЮЗ 4 50 км 8/0
[Ac trans Ci fib]
+12.6 +10.1 85 +11 +12 1012.6 934.0 +12.0
03 18.08 ЮЗ 5 50 км 6/3 1000 м
[Cu hum Ac trans]
+18.7 +11.5 63 +19 +21 1011.6 934.7
06 18.08 ЮЗ 3 50 км 6/6 1000 м
[Cb cap]
+21.7 +10.5 49 +23 +28 комфорт 1009.3 933.3
09 18.08 В 3 50 км 9/8 1000 м
[Cb cap Ac trans]
+21.2 +12.1 56 +23 +24 комфорт 1009.4 933.3
12 18.08 В 3 50 км 9/0
[Ac trans Ci fib]
+18.4 +12.5 68 +19 +19 1008.6 931.9 +22.6
15 18.08 СВ 2 н/о 10/0
[Ac trans Ci sp]
+15.1 +12.8 86 +15 +15 1011.0 933.3
18 18.08 СВ 1 н/о 10/0
[Ac As Ci sp]
+13.4 +11.8 90 +14 +14 1011.5 933.3
21 18.08 С 1 4000 м слаб. дождь 10/3 1000 м
[Sc As op]
+12.8 +12.5 98 +13 +13 1010.3 932.0
00 19.08 штиль 0 10 км дождь 10/0
[As op]
+12.7 +12.4 98 +12 +13 1009.0 930.8 +12.5 0.7
03 19.08 штиль 0 4000 м слаб. дождь 10/0 600 м
[As op]
+14.0 +13.2 95 +14 +14 1009.9 932.0
06 19.08 ЮВ 1 20 км слаб. дождь 10/0 600 м
[As op]
+14.9 +13.6 92 +15 +15 1009.6 932.0
09 19.08 ЮЗ 2 20 км слаб. ливневой дождь 10/4 1000 м
[Cb cap As op]
+15.4 +13.1 86 +15 +15 1009.5 932.0
12 19.08 ЮЗ 2 50 км {ливн. осадки, дождь} 10/4 1000 м
[Cb cap Ac As Ci sp]
+14.8 +13.6 93 +14 +14 1010.0 932.3 +15.8 5
15 19.08 ЮЗ 2 н/о 10/0
[Ac As Ci fib]
+13.2 +12.3 94 +12 +12 1013.1 934.7
18 19.08 ЮЗ 3 н/о 10/6 1000 м
[Sc Ac As Ci sp]
+12.9 +11.6 92 +11 +11 1014.6 936.0
21 19.08 З 2 н/о 10/8 1000 м
[Sc Ac As Ci sp]
+12.6 +11.7 94 +12 +12 1014.7 936.0
00 20.08 ЮЗ 4 50 км 10/8 1000 м
[Sc Ac trans Ci sp]
+13.3 +11.4 88 +12 +12 1014.9 936.4 +12.3
03 20.08 ЮЗ 5 50 км 10/6 1000 м
[Cb cap Ac trans Ci fib]
+16.8 +11.9 73 +16 +16 1016.4 938.7
06 20.08 СЗ 5
{10}
50 км 10/4 1000 м
[Cb cap Ac As Ci sp]
+18.6 +8.0 50 +19 +19 1016.0 938.7
09 20.08 С 6
{12}
50 км 8/4 1000 м
[Cb cap Ci sp]
+18.8 +8.4 51 +19 +19 1014.5 937.3
12 20.08 ЮЗ 2
{10}
50 км 6/0
[Ac lent Ci fib]
+15.4 +11.6 78 +15 +15 1015.4 937.4 +20.3
15 20.08 З 2 н/о 3/0
[Ac trans]
+10.3 +9.5 95 +9 +9 1018.3 938.7
18 20.08 З 5 н/о ясно +10.2 +9.3 94 +7 +7 1018.4 938.7
21 20.08 З 5 н/о ясно +10.2 +9.3 94 +7 +7 1018.4 938.7
00 21.08 ЮЗ 2 50 км туман поземный ясно +9.1 +9.0 99 +7 +9 1018.3 938.3 +6.3
03 21.08 ЮЗ 1 50 км 3/3 1000 м
[Cu hum]
+14.8 +11.4 80 +15 +25 1017.0 938.7
06 21.08 В 1 50 км 4/3 1000 м
[Cu med, cong Ac trans]
+20.9 +11.8 56 +24 +33 комфорт 1012.4 936.0
09 21.08 В 1 50 км 8/8 1000 м
[Cb cap]
+22.3 +11.1 49 +24 +26 комфорт 1012.0 936.0
12 21.08 В 1 50 км 8/5 1000 м
[Sc Ci sp]
+18.8 +13.8 73 +21 +21 комфорт 1012.1 935.2 +23.3
15 21.08 С 3 н/о 1 балл +13.2 +11.6 90 +12 +12 1015.9 937.3
18 21.08 штиль 0 н/о 3/0
[Ci fib]
+10.6 +10.1 97 +10 +10 1016.7 937.3
21 21.08 З 2 н/о 6 баллов +9.5 +9.4 99 +8 +8 1017.1 937.3
00 22.08 З 2 50 км местами туман поземный 4/0
[Ac trans]
+11.1 +11.2 100 +10 +11 1016.7 937.4 +8.5
03 22.08 штиль 0 50 км 7 баллов +17.5 +12.6 73 +18 +22 1016.2 938.7
06 22.08 В 1 50 км 7 баллов +20.9 +13.6 63 +25 +29 комфорт 1012.3 936.0
09 22.08 В 3 50 км 6 баллов +24.1 +15.0 57 +27 +28 жарко 1011.4 936.0
12 22.08 В 2 50 км 10/8 1000 м
[Cb cap Ac As Ci fib]
+20.3 +15.1 72 +24 +24 комфорт 1011.2 934.8 +24.4
15 22.08 В 1 н/о зарница 6 баллов +17.0 +14.6 86 +18 +18 1013.4 936.0
18 22.08 В 1 н/о в посл. час ливневой дождь 9 баллов +15.2 +14.1 93 +16 +16 1013.9 936.0
21 22.08 СЗ 4 н/о 7 баллов +12.7 +11.8 94 +11 +11 1014.7 936.0
00 23.08 З 1 50 км 8/0
[Ci fib]
+14.9 +12.2 84 +15 +17 1012.8 934.9 +11.7 0.6
03 23.08 Ю 1 50 км 6 баллов +19.9 +14.3 70 +23 +28 комфорт 1011.2 934.7

 

Местоположение метеостанции Петропавловка (Бурятия, Россия): широта 50.62 долгота 105.30 высота над уровнем моря 684 м.

В архиве по умолчанию представлена погода в Петропавловке за последнюю неделю. Архивные данные за месяц целиком и за предыдущие месяцы, начиная с января 2011 года, Вы можете получить, выбрав интересующий диапазон дат из раскрывающегося списка и нажав кнопку "Ввод!".


*Определитесь, кто Вы:
робот инопланетянин человек

Внимание! Время в таблицах - всемирное. Для получения местного времени необходимо прибавить поправку, которая равна 8 ч.

Смотрите также архив погоды в соседних городах и на ближайших метеорологических станциях:

Погода в Торее (Бурятия, Россия) (35 км)
Погода в Кяхте (Бурятия, Россия) (83 км)
Погода в Танхое (Бурятия, Россия) (104 км)
Погода в Новоселенгинске (Бурятия, Россия) (106 км)
Погода в Цакире (Бурятия, Россия) (122 км)
Погода в Бабушкине (Бурятия, Россия) (125 км)
Погода в Байкальске (Иркутская область, Россия) (142 км)
Погода в Бичуре (Бурятия, Россия) (155 км)
Погода в Хамар-Дабан (Иркутская область, Россия) (156 км)
Погода в Большом Голоустном (Иркутская область, Россия) (157 км)

Пояснения к столбцам:

Ветер - указаны скорость ветра в м/с - средняя за 10 мин, порывы в срок и между сроками (в фигурных скобках) и направление, откуда дует ветер: С - северный, СВ - северо-восточный, В - восточный, ЮВ - юго-восточный, Ю - южный, ЮЗ - юго-западный, З - западный, СЗ - северо-западный.
Видимость - горизонтальная дальность видимости в метрах или километрах. При видимости от 1 до 10 км при отсутствии осадков обычно наблюдается дымка, при ухудшении видимости до 1 км и менее - туман. В сухую погоду видимость может ухудшаться дымом, пылью или мглою.
Явления - указаны атмосферные явления, наблюдавшиеся в срок или в последний час перед сроком; фигурными скобками обозначены явления, наблюдавшиеся между сроками (за 1-3 часа до срока); квадратными скобками обозначены град или гололедные отложения с указанием их диаметра в мм.
Облачность - указаны через наклонную черту общая и нижняя облачность в баллах и высота нижней границы облаков в метрах; квадратными скобками обозначены формы облаков: Ci - перистые, Cs - перисто-слоистые, Cc - перисто-кучевые, Ac - высококучевые, As - высокослоистые, Sc - слоисто-кучевые, Ns - слоисто-дождевые, Cu - кучевые, Cb - кучево-дождевые. Подробнее классификацию облаков см. в Атласе облаков (PDF).
T - Температура воздуха - температура, измеренная на высоте 2 м над землей.
Td - Температура точки росы - температура, при понижении до которой содержащийся в воздухе водяной пар достигнет насыщения.
f - Относительная влажность воздуха - влажноcть воздуха, измеренная на высоте 2 м над землей.
Te - Эффективная температура - температура, которую ощущает одетый по сезону человек в тени. Характеристика душности погоды. При расчете учитывается влияние влажности воздуха и скорости ветра на теплоощущения человека.
Tes - Эффективная температура на солнце - температура, которую ощущает человек, с поправкой на солнечный нагрев. Характеристика знойности погоды. Зависит от высоты солнца над горизонтом, облачности и скорости ветра. Ночью, в пасмурную погоду, а также при ветре 12 м/с и более поправка равна нулю.
P - Атмосферное давление - приведенное к уровню моря атмосферное давление.
Po - Атмосферное давление - измеренное на уровне метеостанции атмосферное давление.
Tmin - Минимальная температура - минимум температуры воздуха на высоте 2 м над землей.
Tmax - Максимальная температура - максимум температуры воздуха на высоте 2 м над землей.
R - Количество осадков - Количество выпавших осадков за период времени, мм. При наведении курсора мыши на число - период времени, за который выпало указанное количество осадков.
R24 - Количество осадков - Количество выпавших осадков за 24 часа, мм.
S - Снежный покров - Высота снежного покрова, см. При наведении курсора мыши на число - состояние снежного покрова и степень покрытия местности в баллах.